Regional Weather Roundup
Issued by NWS

Home | Current Version | Previous Version | Text Only | Print | Product List | Glossary Off
Versions: 1 2 3 4 5 6 7 8 9 10 11 12 13 14 15 16 17 18 19 20 21 22 23 24 25 26 27 28 29 30 31 32 33 34 35 36 37 38 39 40 41 42 43 44 45 46 47 48 49 50

000
ASUS45 KTFX 271704
RWRMT
MONTANA HOURLY WEATHER ROUNDUP
NATIONAL WEATHER SERVICE GREAT FALLS MT
1104 AM MDT SUN JUL 27 2014

NOTE: "FAIR" INDICATES FEW OR NO CLOUDS BELOW 12000 FEET WITH NO
SIGNIFICANT WEATHER AND/OR OBSTRUCTIONS TO VISIBILITY.

* THESE STATIONS ARE NOT UNDER NWS QUALITY CONTROL. THEY DO NOT
   REPORT WEATHER SUCH AS PRECIPITATION OR FOG.

MTZ001>007-043-271800-
WEST OF THE DIVIDE
CITY           SKY/WX    TMP DP  RH WIND       PRES   REMARKS
KALISPELL      SUNNY     72  46  40 VRB6      30.26S
MISSOULA       SUNNY     70  39  32 CALM      30.27F
BUTTE          SUNNY     72  36  27 CALM      30.36F
MULLAN PASS    SUNNY     64  39  40 CALM      30.37S
* ESSEX        N/A       68  42  39 E1         N/A
* LINCOLN      N/A       66  43  43 SE1        N/A
* LOOKOUT PASS N/A       68  44  42 S5G11      N/A
* POLSON       N/A       74  55  52 SW2        N/A
* RONAN APT    SUNNY     73  48  41 N/A        N/A
* SEELEY LAKE  N/A       70  40  34 NW2        N/A
* THOMP F APT  SUNNY     73  33  23 NW5G12     N/A
* YAAK HILL    N/A       71  44  38 SW2        N/A
$$

MTZ008-052>055-271800-
SOUTHWEST MONTANA
CITY           SKY/WX    TMP DP  RH WIND       PRES   REMARKS
BOZEMAN        SUNNY     73  37  27 NW3       30.32F
DILLON         SUNNY     70  37  30 CALM      30.35S
W YELLOWSTONE  SUNNY     66  32  28 CALM      30.44S
* THREE FORKS  SUNNY     72  46  40 N/A        N/A
* BOULDER HILL N/A       66  37  34 S10        N/A
* MONIDA PASS  N/A       67  29  24 NW3G8      N/A
* RAYNOLDS PAS N/A       67  66  97 N6         N/A
* WHITEHALL    N/A       71  39  31 SW6        N/A
* WISE RIVER   N/A       63  38  40 NW4        N/A
$$

MTZ009>010-012-014-046-048-049-054-271800-
EAST SLOPES AND CENTRAL MONTANA
CITY           SKY/WX    TMP DP  RH WIND       PRES   REMARKS
CUT BANK       SUNNY     72  45  38 VRB7      30.29S
GREAT FALLS    SUNNY     73  43  34 VRB3      30.29S
HELENA         SUNNY     72  39  30 CALM      30.29F
* CONRAD       SUNNY     70  54  57 N/A        N/A
* DEARBORN     N/A       73  42  33 S3G9       N/A
* EAST GLACIER N/A       72  38  29 SW1G6      N/A
* MONARCH      N/A       72  37  28 E9         N/A
* ROGERS PASS  N/A       71  39  31 SE3G9      N/A
* SAINT MARY   N/A       66  45  47 W5         N/A
* SWEET GRASS  N/A       72  42  34 S12G17     N/A
$$

MTZ011-013-016-021-035-040-045-047-050-051-271800-
NORTH CENTRAL MONTANA
CITY           SKY/WX    TMP DP  RH WIND       PRES   REMARKS
HAVRE          SUNNY     75  45  34 NE5       30.28S
LEWISTOWN      SUNNY     77  39  26 E8        30.33S
* CHESTER      N/A       73  41  32 SE7        N/A
* DENTON       N/A       78  41  27 SE8G18     N/A
* JUDITH GAP   N/A       69  46  44 SE9        N/A
$$

MTZ017>020-022>027-061-062-271800-
NORTHEAST MONTANA
CITY           SKY/WX    TMP DP  RH WIND       PRES   REMARKS
GLASGOW        SUNNY     72  52  49 W7        30.29S
GLENDIVE       SUNNY     72  54  53 N9G16     30.32S
JORDAN         SUNNY     73  48  41 CALM      30.29F
SIDNEY         CLOUDY    66  54  65 SE3       30.32R
WOLF POINT     SUNNY     72  55  55 VRB3      30.29S
* BEAVER HILL  N/A       64  54  70 N4         N/A
* CIRCLE       N/A       70  54  57 N/A        N/A
* LINDSAY DVD  N/A       67  52  59 W9         N/A
* NAVAJO       N/A       66  56  70 SE2        N/A
$$

MTZ028>042-056>058-271800-
SOUTHCENTRAL AND SOUTHEAST MONTANA
CITY           SKY/WX    TMP DP  RH WIND       PRES   REMARKS
BAKER          PTCLDY    72  52  49 N8        30.33R
BILLINGS       SUNNY     75  45  34 VRB5      30.33S
LIVINGSTON     SUNNY     72  37  28 VRB3      30.35F
MILES CITY     SUNNY     75  48  39 N9        30.30F
* LAUREL APT   SUNNY     73  45  37 N/A        N/A
* ROUNDUP APT  SUNNY     73  41  32 S6         N/A
* ALZADA       N/A       72  45  38 W8         N/A
* HYSHAM       N/A       78  49  36 S2         N/A
* LAME DEER    N/A       70  42  36 N6         N/A
* REED POINT   N/A       77  44  31 NE4        N/A
* ROSCOE HILL  N/A       71  37  29 VRB1G10    N/A
$$

REGIONAL REPORTS...DAKOTAS
CITY           SKY/WX    TMP DP  RH WIND       PRES   REMARKS
WILLISTON      CLOUDY    64  52  65 N9        30.30R
DICKINSON      CLOUDY    64  52  65 N13       30.30R
CROSBY         PTSUNNY   63  55  75 NW6       30.30S
TIOGA          CLOUDY    61  55  81 N8        30.33R
WATFORD CITY   CLOUDY    63  52  68 N12G17    30.29R
BISMARCK       SUNNY     66  52  61 N13G21    30.26R
GRAND FORKS    PTSUNNY   64  55  73 N16       30.11R
FARGO          CLOUDY    66  55  68 NW24G29   30.08R
BUFFALO SD     SUNNY     70  52  53 N15       30.25S
RAPID CITY     SUNNY     73  50  44 N17G24    30.32S
$$

REGIONAL REPORTS...WYOMING/IDAHO/WASHINGTON
CITY           SKY/WX    TMP DP  RH WIND       PRES   REMARKS
GILLETTE       SUNNY     73  39  29 CALM      30.37S
SHERIDAN       SUNNY     75  43  32 E7        30.35F
YELLOWSTONE LA SUNNY     61  32  34 VRB3      30.54S
SALMON         SUNNY     72  36  27 NW5       30.26F
MULLAN PASS    SUNNY     64  39  40 CALM      30.37S
SPOKANE        SUNNY     73  46  38 NE8       30.19S

$$



USA.gov is the U.S. government's official web portal to all federal, state and local government web resources and services.